Weather past 2 weeks in Cayenne, French Guiana

Now
82 °F

Partly sunny.


Feels Like: 92 °F
Forecast: 77 / 83 °F
Wind: No wind

Location: Cayenne / Rochambeau

Current Time: May 23, 2015 at 1:39:00 PM

Latest Report: May 23, 2015 at 1:00 PM


Visibility: N/A

Pressure: 29.95 "Hg

Humidity: 89%

Dew point: 79 °F

Location of CayenneLocation

Historic Weather in Cayenne — Graph

°F

Cayenne temperature yesterday

Maximum temperature yesterday: 90 °F (at 2:00 PM)
Minimum temperature yesterday: 73 °F (at 5:30 AM)
Average temperature yesterday: 80 °F

Past Weeks' High & Low Weather Summary

 TemperatureHumidityPressure
High99 °F (May 13, 6:00 PM)100% (May 11, 4:30 AM)30.01 "Hg (May 11, 4:30 AM)
Low73 °F (May 13, 4:00 AM)44% (May 13, 6:00 PM)29.83 "Hg (May 11, 4:00 PM)
Average79 °F87%29.91 "Hg
* Reported May 8 12:00 Noon — May 23 12:30 PM, Cayenne, Weather by CustomWeather, © 2015

Note: Actual official high and low records may vary slightly from our data, if they occured in-between our weather recording intervals... More about our weather records

Advertising

Cayenne weather history for previous 24 hours

 ConditionsComfort  
Time TempWeatherWind HumidityBarometerVisibility
12:30 PM
Sat, May 23
79 °FHeavy rain. Fog.6 mph94%29.95 "Hg1 mi
12:00 PM82 °FBroken clouds.12 mph84%29.95 "HgN/A
11:30 AM82 °FPartly sunny.9 mph84%29.98 "HgN/A
11:00 AM86 °FBroken clouds.10 mph75%29.98 "HgN/A
10:30 AM84 °FPartly sunny.8 mph79%29.98 "HgN/A
10:00 AM82 °FBroken clouds.No wind89%29.98 "HgN/A
9:30 AM81 °FBroken clouds.2 mph89%29.98 "HgN/A
9:00 AM79 °FLight rain. Partly sunny.No wind94%29.98 "HgN/A
8:30 AM79 °FLight rain. Fog.2 mph89%29.95 "Hg2 mi
8:00 AM77 °FLight rain. Fog.1 mph94%29.95 "Hg3 mi
7:30 AM77 °FBroken clouds.No wind94%29.95 "HgN/A
7:00 AM77 °FRain. Partly sunny.No wind94%29.95 "HgN/A
6:30 AM75 °FMostly cloudy.No wind100%29.95 "HgN/A
6:00 AM75 °FPartly cloudy.No wind94%29.92 "HgN/A
5:30 AM77 °FPartly cloudy.1 mph89%29.92 "HgN/A
5:00 AM77 °FRain. Fog.9 mph94%29.92 "Hg3 mi
4:30 AM77 °FMostly cloudy.No wind94%29.89 "HgN/A
4:00 AM77 °FMostly cloudy.2 mph94%29.89 "HgN/A
3:30 AM77 °FPartly cloudy.2 mph94%29.89 "Hg4 mi
3:00 AM77 °FPartly cloudy.No wind94%29.89 "HgN/A
2:30 AM77 °FLight rain. Mostly cloudy.No wind94%29.92 "Hg6 mi
2:00 AM77 °FPartly cloudy.No wind94%29.92 "HgN/A
1:30 AM77 °FLight rain. Passing clouds.2 mph94%29.92 "HgN/A
1:00 AM77 °FPassing clouds.No wind94%29.95 "HgN/A
12:30 AM77 °FPartly cloudy.2 mph94%29.95 "HgN/A
12:00 AM77 °FPartly cloudy.No wind94%29.95 "HgN/A
11:30 PM
Fri, May 22
77 °FPartly cloudy.No wind94%29.98 "HgN/A
11:00 PM77 °FPassing clouds.No wind94%29.98 "HgN/A
10:30 PM77 °FPassing clouds.No wind94%29.98 "HgN/A
10:00 PM77 °FPassing clouds.No wind94%29.95 "HgN/A
9:30 PM79 °FPassing clouds.No wind89%29.95 "HgN/A
9:00 PM79 °FPassing clouds.3 mph89%29.95 "HgN/A
8:30 PM79 °FPassing clouds.3 mph89%29.95 "HgN/A
8:00 PM81 °FPassing clouds.3 mph79%29.92 "HgN/A
7:30 PM81 °FPassing clouds.5 mph84%29.92 "HgN/A
7:00 PM82 °FPartly cloudy.5 mph79%29.92 "HgN/A
6:30 PM82 °FPartly sunny.3 mph84%29.92 "HgN/A
6:00 PM82 °FBroken clouds.5 mph84%29.89 "HgN/A
5:30 PM82 °FWarm.9 mph84%29.89 "HgN/A
5:00 PM81 °FMore clouds than sun.8 mph84%29.89 "HgN/A
4:30 PM86 °FPartly sunny.12 mph75%29.89 "HgN/A
4:00 PM86 °FPartly sunny.12 mph75%29.89 "HgN/A
3:30 PM86 °FPartly sunny.16 mph75%29.92 "HgN/A
3:00 PM84 °FBroken clouds.7 mph79%29.92 "HgN/A
2:30 PM88 °FPassing clouds.14 mph66%29.92 "HgN/A
2:00 PM90 °FBroken clouds.14 mph67%29.92 "HgN/A
1:30 PM88 °FPartly sunny.15 mph66%29.95 "HgN/A
1:00 PM88 °FPartly sunny.14 mph66%29.95 "HgN/A
Weather by CustomWeather, © 2015

See weather overviewHow to use our weather pages